Location: Cheyres
(46.8153°N, 6.7877°E)
Time: 01:08:07
(UTC+00:00)

Tiros 1 - Pass Details

Date: 01 June 2022
Orbit: 629 x 663 km, 48.4° (Epoch: 05 July)

Event Time Altitude Azimuth Distance (km) Brightness Sun altitude
Rises 01:42:40 0° 281° (W) 2,920 10.3 -15.0°
Reaches altitude 10° 01:44:59 10° 283° (WNW) 2,014 9.5 -14.8°
Maximum altitude 01:49:37 80° 9° (N) 650 7.2 -14.3°
Drops below altitude 10° 01:54:18 10° 98° (E) 2,029 10.0 -13.9°
Sets 01:56:39 0° 100° (E) 2,943 10.9 -13.7°
